Content
SEND FEEDBACK

Daily
Averages
Monthly
Summary
United States of America

TOKLAT, ALASKA


Home > North America > United States > Alaska
Elevation: 360 feet     Latitude: 64 33N     Longitude: 149 05W

WEATHER
 
SELECT A DAY
Number of Records: 182,668;   Date Range: 1/1/95 - 7/26/14
 
SHARE

PRINT THIS DATA

[ ← Previous Day ]
WEATHER ALMANAC - FEBRUARY 13, 2013
[ Next Day → ]
[ °C ]   °F
Weather ElementAverageHighLow
Temperature-5.7 °F6.1 °F (3:53 pm)-13 °F (1:53 am)
Dewpoint-10.8 °F (2:53 pm)-18 °F (1:53 am)
Humidity78.4 %84 % (4:53 pm)74 % (3:53 am)
Barometer29.80 in29.83 in (10:53 am)29.78 in (4:53 pm)
Wind Speed0.5 mph3.5 mph (2:53 pm)
Weather ElementAverage
Visibility10 mi
Wind DirectionNNE (35.2 °)

Weather ElementTotal
Precipitation---
Heating Degree Days68.5 (Base 65)
Averaged from 23 records on February 13, 2013
WEATHER CONDITIONS BREAKOUT
WIND DIRECTION BREAKOUT
WEATHER BY HOUR - FEBRUARY 13, 2013
[ °C ]   °F
Local TimeTemperatureDewpointHumidityBarometerVisibilityWind DirectionWind SpeedGust SpeedPrecipitationEventsConditions
1:53 AM-13.0 °F-18.0 °F78 %29.81 in10.0 miCalmClear
2:53 AM-11.9 °F-17.0 °F78 %29.80 in10.0 miCalmClear
3:53 AM-11.9 °F-18.0 °F74 %29.80 in10.0 miCalmClear
4:53 AM-11.9 °F-17.0 °F78 %29.81 in10.0 miCalmClear
5:53 AM-11.0 °F-17.0 °F75 %29.80 in10.0 miCalmClear
6:53 AM-11.0 °F-17.0 °F75 %29.80 in10.0 miCalmClear
7:53 AM-11.9 °F-18.0 °F74 %29.80 in10.0 miCalmClear
8:53 AM-11.0 °F-16.1 °F78 %29.81 in10.0 miCalmClear
9:53 AM-11.9 °F-18.0 °F74 %29.82 in10.0 miCalmClear
10:53 AM-11.0 °F-17.0 °F75 %29.83 in10.0 miCalmClear
11:53 AM-5.1 °F-9.9 °F80 %29.83 in10.0 miCalmClear
12:53 PM-0.9 °F-5.1 °F83 %29.82 in10.0 miCalmClear
1:53 PM5.0 °F-0.9 °F76 %29.81 in10.0 miCalmClear
2:53 PM5.0 °F0.0 °F80 %29.80 in10.0 miNW (310°)3.5 mphClear
3:53 PM6.1 °F0.0 °F76 %29.79 in10.0 miCalmClear
4:53 PM3.9 °F0.0 °F84 %29.78 in10.0 miCalmClear
5:53 PM0.0 °F-4.0 °F83 %29.78 in10.0 miCalmClear
6:53 PM-4.0 °F-9.0 °F79 %29.78 in10.0 miCalmClear
7:53 PM-4.0 °F-8.0 °F83 %29.78 in10.0 miWest (270°)3.5 mphClear
8:53 PM-2.0 °F-6.0 °F83 %29.79 in10.0 miCalmClear
9:53 PM-4.0 °F-9.0 °F79 %29.79 in10.0 miSW (230°)3.5 mphClear
10:53 PM-6.0 °F-11.0 °F79 %29.79 in10.0 miCalmClear
11:53 PM-8.0 °F-13.0 °F79 %29.79 in10.0 miCalmClear
Hourly data recorded from PANN, located miles away from Toklat, Alaska







STORIES FROM OUR PARTNERS